ARIANE 5 R/B, 38993

Orbit data source: Space-Track

ARIANE 5 R/B, 38993 is space debris in HEO originally from a launch on Sat, 10 Nov 2012 UTC launched from the French Guiana (FRGUI). Debris objects in space refer to the collection of defunct objects orbiting the Earth. Examples of debris include non-operational satellites, rocket bodies, and fragments generated from explosions, collisions, or faulty payload assembly.

Loading next visibility...
Identifier
38993, 2012-062C
Orbit
HEO
Country
Flag of FRFR
Related business
Manufacturer
EADS/LV
Mission
Spacecraft
Bus & Motor
ESC-A, Unknown motor
Mass
~5,000 kg wet, ~5,000 kg dry
Launch date (UTC)
2012-11-10 (13 years ago)
Launch vehicle
Unknown
Launch site
French Guiana (FRGUI)
Object type
Payload
Rocket body
Debris
Shape & HBR
Cyl + 1 Nozzle, 3.5 m
Radar Cross Section
41.627 m², Large (>1 m²)

Expand to show TLE details & history
Last TLE update: 23 hours ago

TLE from 23 hours ago
0 ARIANE 5 R/B
1 38993U 12062C   25305.17484445  .00012986  00000-0  17033-2 0  9997
2 38993   2.3824 140.5521 6958684 245.8178  30.2524  2.71283737117658
Epoch: 2025-11-01T04:11Z
TLE epoch observation values (Epoch: 2025-11-01T04:11:46.560Z)
Latitude
Longitude
37.49933°
Altitude
9,401.699 km
Speed
5.671 km/s
True Right ascension
09h 24m 36s
True Declination
0° 00' 00"
Sunlit
Object was in daylight at epoch
Visualization orbit readout
Latitude
Unknown
Longitude
Unknown
Altitude
Unknown
Speed
Unknown
Apparent Right ascension
Unknown
Apparent Declination
Unknown
Sunlit
N/A
Visualization observer readout
Local Sidereal Time
22:38:41
Azimuth
Unknown
Elevation
Unknown
Doppler factor
Unknown
Orbital elements
Apogee altitude
30,459.15 km
Perigee altitude
228.144 km
Semi-major axis
21,721.784 km
Eccentricity
0.69587
Inclination
2.3824°
RAAN
140.5521°
Arg. of periapsis
245.8178°
True anomaly
114.71344°
Mean anomaly
30.2524°
Eccentric anomaly
66.93573°
Mean motion
0.67795 °/min
Orbital period
531.01 mins
BSTAR
0.0017033
Loading maneuver chart data...
Computing Atmospheric mass density...
Loading historical data...
Loading historical data...
Loading historical data...
Loading historical data...
Loading historical data...
Loading historical data...
Loading historical data...
Other satellites on launch #62 in the year 2012 (2012-11-10 UTC)

Documentation

Showing up to 5 results
|